Tillbaka till svenska Fidonet
English   Information   Debug  
FILM   0/18
FNEWS_PUBLISH   4461
FN_SYSOP   41736
FN_SYSOP_OLD1   71952
FTP_FIDO   0/2
FTSC_PUBLIC   0/13628
FUNNY   0/4886
GENEALOGY.EUR   0/71
GET_INFO   105
GOLDED   0/408
HAM   0/16085
HOLYSMOKE   0/6791
HOT_SITES   0/1
HTMLEDIT   0/71
HUB203   466
HUB_100   264
HUB_400   39
HUMOR   0/29
IC   0/2851
INTERNET   0/424
INTERUSER   0/3
IP_CONNECT   719
JAMNNTPD   0/233
JAMTLAND   0/47
KATTY_KORNER   0/41
LAN   0/16
LINUX-USER   0/19
LINUXHELP   0/1155
LINUX   0/22120
LINUX_BBS   0/957
mail   18.68
mail_fore_ok   249
MENSA   0/341
MODERATOR   0/102
MONTE   0/992
MOSCOW_OKLAHOMA   0/1245
MUFFIN   0/783
MUSIC   0/321
N203_STAT   934
N203_SYSCHAT   313
NET203   321
NET204   69
NET_DEV   0/10
NORD.ADMIN   0/101
NORD.CHAT   0/2572
NORD.FIDONET   189
NORD.HARDWARE   0/28
NORD.KULTUR   0/114
NORD.PROG   0/32
NORD.SOFTWARE   0/88
NORD.TEKNIK   0/58
NORD   0/453
OCCULT_CHAT   0/93
OS2BBS   0/787
OS2DOSBBS   0/580
OS2HW   0/42
OS2INET   0/37
OS2LAN   0/134
OS2PROG   0/36
OS2REXX   0/113
OS2USER-L   207
OS2   0/4796
OSDEBATE   0/18996
PASCAL   0/490
PERL   0/457
PHP   0/45
POINTS   0/405
POLITICS   0/29554
POL_INC   0/14731
PSION   103
R20_ADMIN   1124
R20_AMATORRADIO   0/2
R20_BEST_OF_FIDONET   13
R20_CHAT   0/893
R20_DEPP   0/3
R20_DEV   399
R20_ECHO2   1379
R20_ECHOPRES   0/35
R20_ESTAT   0/719
R20_FIDONETPROG...
...RAM.MYPOINT
  0/2
R20_FIDONETPROGRAM   0/22
R20_FIDONET   0/248
R20_FILEFIND   0/24
R20_FILEFOUND   0/22
R20_HIFI   0/3
R20_INFO2   3269
R20_INTERNET   0/12940
R20_INTRESSE   0/60
R20_INTR_KOM   0/99
R20_KANDIDAT.CHAT   42
R20_KANDIDAT   28
R20_KOM_DEV   112
R20_KONTROLL   0/13319
R20_KORSET   0/18
R20_LOKALTRAFIK   0/24
R20_MODERATOR   0/1852
R20_NC   76
R20_NET200   245
R20_NETWORK.OTH...
...ERNETS
  0/13
R20_OPERATIVSYS...
...TEM.LINUX
  0/44
R20_PROGRAMVAROR   0/1
R20_REC2NEC   534
R20_SFOSM   0/341
R20_SF   0/108
R20_SPRAK.ENGLISH   0/1
R20_SQUISH   107
R20_TEST   2
R20_WORST_OF_FIDONET   12
RAR   0/9
RA_MULTI   106
RA_UTIL   0/162
REGCON.EUR   0/2056
REGCON   0/13
SCIENCE   0/1206
SF   0/239
SHAREWARE_SUPPORT   0/5146
SHAREWRE   0/14
SIMPSONS   0/169
STATS_OLD1   0/2539.065
STATS_OLD2   0/2530
STATS_OLD3   0/2395.095
STATS_OLD4   0/1692.25
SURVIVOR   0/495
SYSOPS_CORNER   0/3
SYSOP   0/84
TAGLINES   0/112
TEAMOS2   0/4530
TECH   0/2617
TEST.444   0/105
TRAPDOOR   0/19
TREK   0/755
TUB   0/290
UFO   0/40
UNIX   0/1316
USA_EURLINK   0/102
USR_MODEMS   0/1
VATICAN   0/2740
VIETNAM_VETS   0/14
VIRUS   0/378
VIRUS_INFO   0/201
VISUAL_BASIC   0/473
WHITEHOUSE   0/5187
WIN2000   0/101
WIN32   0/30
WIN95   0/4290
WIN95_OLD1   0/70272
WINDOWS   0/1517
WWB_SYSOP   0/419
WWB_TECH   0/810
ZCC-PUBLIC   0/1
ZEC   4

 
4DOS   0/134
ABORTION   0/7
ALASKA_CHAT   0/506
ALLFIX_FILE   0/1313
ALLFIX_FILE_OLD1   0/7997
ALT_DOS   0/152
AMATEUR_RADIO   0/1039
AMIGASALE   0/14
AMIGA   0/331
AMIGA_INT   0/1
AMIGA_PROG   0/20
AMIGA_SYSOP   0/26
ANIME   0/15
ARGUS   0/924
ASCII_ART   0/340
ASIAN_LINK   0/651
ASTRONOMY   0/417
AUDIO   0/92
AUTOMOBILE_RACING   0/105
BABYLON5   0/17862
BAG   135
BATPOWER   0/361
BBBS.ENGLISH   0/382
BBSLAW   0/109
BBS_ADS   0/5290
BBS_INTERNET   0/507
BIBLE   0/3563
BINKD   0/1119
BINKLEY   0/215
BLUEWAVE   0/2173
CABLE_MODEMS   0/25
CBM   0/46
CDRECORD   0/66
CDROM   0/20
CLASSIC_COMPUTER   0/378
COMICS   0/15
CONSPRCY   0/899
COOKING   33739
COOKING_OLD1   0/24719
COOKING_OLD2   0/40862
COOKING_OLD3   0/37489
COOKING_OLD4   0/35496
COOKING_OLD5   9370
C_ECHO   0/189
C_PLUSPLUS   0/31
DIRTY_DOZEN   0/201
DOORGAMES   0/2065
DOS_INTERNET   0/196
duplikat   6002
ECHOLIST   0/18295
EC_SUPPORT   0/318
ELECTRONICS   0/359
ELEKTRONIK.GER   1534
ENET.LINGUISTIC   0/13
ENET.POLITICS   0/4
ENET.SOFT   0/11701
ENET.SYSOP   33963
ENET.TALKS   0/32
ENGLISH_TUTOR   0/2000
EVOLUTION   0/1335
FDECHO   0/217
FDN_ANNOUNCE   0/7068
FIDONEWS   24191
FIDONEWS_OLD1   0/49742
FIDONEWS_OLD2   0/35949
FIDONEWS_OLD3   0/30874
FIDONEWS_OLD4   0/37224
FIDO_SYSOP   12852
FIDO_UTIL   0/180
FILEFIND   0/209
FILEGATE   0/212
Möte HAM, 16085 texter
 lista första sista föregående nästa
Text 5406, 993 rader
Skriven 2012-07-13 01:31:26 av Amsat List (1:323/120.0)
Ärende: [keps] orb12194.amsa
============================
[keps] orb12194.amsa

Sender: keps-bounces@amsat.org
Return-Path: <keps-bounces@amsat.org>
X-Rcpt: craig.healy@chowda.com
X-UIDL: 1342156294.552

SB KEPS @ AMSAT  $ORB12194.O
Orbital Elements  12194.OSCAR

HR AMSAT ORBITAL ELEMENTS FOR OSCAR SATELLITES
FROM WA5QGD FORT WORTH,TX July 12, 2012
Send SUBSCRIBE KEPS/UNSUBSCRIBE KEPS to majordomo@amsat.org only
BID: ORB12194.O
TO ALL RADIO AMATEURS BT

Satellite: AO-07
Catalog number: 07530
Epoch time:      12194.60327822
Element set:     428
Inclination:      101.4036 deg
RA of node:       190.8338 deg
Eccentricity:    0.0011577
Arg of perigee:   232.8870 deg
Mean anomaly:     127.1141 deg
Mean motion:   12.53590157 rev/day
Decay rate:       -2.7e-07 rev/day^2
Epoch rev:           72323
Checksum:              274

Satellite: FO-29
Catalog number: 24278
Epoch time:      12193.95805674
Element set:    0886
Inclination:      098.5875 deg
RA of node:       291.3723 deg
Eccentricity:    0.0350353
Arg of perigee:   325.3446 deg
Mean anomaly:     032.5305 deg
Mean motion:   13.52984864 rev/day
Decay rate:        5.0e-08 rev/day^2
Epoch rev:           78530
Checksum:              339

Satellite: SO-33
Catalog number: 25509
Epoch time:      12192.39712066
Element set:    0274
Inclination:      031.4308 deg
RA of node:       202.3369 deg
Eccentricity:    0.0351839
Arg of perigee:   046.3830 deg
Mean anomaly:     316.5434 deg
Mean motion:   14.28786688 rev/day
Decay rate:       3.10e-06 rev/day^2
Epoch rev:           71597
Checksum:              313

Satellite: RS-22
Catalog number: 27939
Epoch time:      12194.76318004
Element set:     531
Inclination:      097.8119 deg
RA of node:       034.2654 deg
Eccentricity:    0.0013518
Arg of perigee:   179.1610 deg
Mean anomaly:     180.9620 deg
Mean motion:   14.64064834 rev/day
Decay rate:       6.10e-06 rev/day^2
Epoch rev:           46962
Checksum:              301

Satellite: VO-52
Catalog number: 28650
Epoch time:      12193.81710304
Element set:    0152
Inclination:      097.5968 deg
RA of node:       223.5668 deg
Eccentricity:    0.0025518
Arg of perigee:   322.7160 deg
Mean anomaly:     037.2256 deg
Mean motion:   14.83036592 rev/day
Decay rate:      1.166e-05 rev/day^2
Epoch rev:           38862
Checksum:              310

Satellite: HO-68
Catalog number: 36122
Epoch time:      12194.90596312
Element set:     638
Inclination:      100.3600 deg
RA of node:       253.7329 deg
Eccentricity:    0.0007809
Arg of perigee:   053.2773 deg
Mean anomaly:     306.9057 deg
Mean motion:   13.16296647 rev/day
Decay rate:       -4.4e-07 rev/day^2
Epoch rev:           12377
Checksum:              304

/EX
SB KEPS @ AMSAT  $ORB12194.D
Orbital Elements  12194.MICROS

HR AMSAT ORBITAL ELEMENTS FOR THE MICROSATS
FROM WA5QGD FORT WORTH,TX July 12, 2012
Send SUBSCRIBE KEPS/UNSUBSCRIBE KEPS to majordomo@amsat.org only
BID: ORB12194.D
TO ALL RADIO AMATEURS BT

Satellite: UO-11
Catalog number: 14781
Epoch time:      12194.80385029
Element set:     918
Inclination:      097.9530 deg
RA of node:       254.0992 deg
Eccentricity:    0.0008209
Arg of perigee:   316.6046 deg
Mean anomaly:     043.4519 deg
Mean motion:   14.80490196 rev/day
Decay rate:       7.14e-06 rev/day^2
Epoch rev:           52372
Checksum:              311

Satellite: AO-16
Catalog number: 20439
Epoch time:      12194.93917522
Element set:     509
Inclination:      098.4320 deg
RA of node:       137.5935 deg
Eccentricity:    0.0011863
Arg of perigee:   081.9661 deg
Mean anomaly:     278.2859 deg
Mean motion:   14.32065215 rev/day
Decay rate:       1.36e-06 rev/day^2
Epoch rev:           17368
Checksum:              318

Satellite: LO-19
Catalog number: 20442
Epoch time:      12194.81855364
Element set:     437
Inclination:      098.3965 deg
RA of node:       140.3916 deg
Eccentricity:    0.0012867
Arg of perigee:   075.3939 deg
Mean anomaly:     284.8672 deg
Mean motion:   14.32283327 rev/day
Decay rate:       2.12e-06 rev/day^2
Epoch rev:           17385
Checksum:              328

Satellite: AO-27
Catalog number: 22825
Epoch time:      12193.88451976
Element set:     147
Inclination:      098.5741 deg
RA of node:       136.3151 deg
Eccentricity:    0.0007991
Arg of perigee:   201.5735 deg
Mean anomaly:     158.5107 deg
Mean motion:   14.29470338 rev/day
Decay rate:       1.45e-06 rev/day^2
Epoch rev:           98000
Checksum:              312

Satellite: IO-26
Catalog number: 22826
Epoch time:      12193.88066270
Element set:    0912
Inclination:      098.5692 deg
RA of node:       136.6763 deg
Eccentricity:    0.0008391
Arg of perigee:   196.5388 deg
Mean anomaly:     163.5522 deg
Mean motion:   14.29744529 rev/day
Decay rate:        5.7e-07 rev/day^2
Epoch rev:           98013
Checksum:              340

Satellite: GO-32
Catalog number: 25397
Epoch time:      12193.65120924
Element set:    0822
Inclination:      098.3647 deg
RA of node:       171.1581 deg
Eccentricity:    0.0001172
Arg of perigee:   165.9539 deg
Mean anomaly:     194.1658 deg
Mean motion:   14.23281743 rev/day
Decay rate:       -7.2e-07 rev/day^2
Epoch rev:           72750
Checksum:              309

Satellite: NO-44
Catalog number: 26931
Epoch time:      12193.87342424
Element set:      85
Inclination:      067.0515 deg
RA of node:       056.7172 deg
Eccentricity:    0.0007517
Arg of perigee:   259.1394 deg
Mean anomaly:     100.8823 deg
Mean motion:   14.29810230 rev/day
Decay rate:      -1.62e-06 rev/day^2
Epoch rev:           56277
Checksum:              296

